EW4543 Weather Reports


time (UTC)temp
C
wind
direction
speed
KPH
gust
KPH
rain 1hr
cm
rain 24hr
cm
rain mn
cm
humidity
%
barometer
mb
20260508181537 25 230 1.6 4.8 0.00 0.00 0.00 47 1012.9
20260508180043 25 255 1.6 4.8 0.00 0.00 0.00 46 1012.9
20260508174539 25 187 0.0 4.8 0.00 0.00 0.00 45 1012.9
20260508173032 25 217 0.0 4.8 0.00 0.00 0.00 42 1012.9
20260508171532 25 162 0.0 3.2 0.00 0.00 0.00 41 1012.8
20260508170034 24 121 0.0 3.2 0.00 0.00 0.00 43 1012.9
20260508164534 23 133 0.0 3.2 0.00 0.00 0.00 51 1012.8
20260508163022 22 149 0.0 1.6 0.00 0.00 0.00 53 1013.0
20260508161515 20 299 0.0 1.6 0.00 0.00 0.00 66 1013.0
20260508160011 18 299 0.0 1.6 0.00 0.00 0.00 69 1013.0
20260508154507 17 299 0.0 1.6 0.00 0.00 0.00 73 1013.1
20260508153002 15 297 0.0 1.6 0.00 0.00 0.00 80 1013.0
20260508151559 12 297 0.0 0.0 0.00 0.00 0.00 82 1012.9
20260508150056 11 297 0.0 0.0 0.00 0.00 0.00 87 1013.1
20260508144554 10 297 0.0 0.0 0.00 0.00 0.00 94 1013.0
20260508143057 9 297 0.0 0.0 0.00 0.00 0.00 95 1013.0
20260508141603 8 297 0.0 0.0 0.00 0.00 0.00 95 1012.9
20260508140050 8 297 0.0 0.0 0.00 0.00 0.00 95 1012.8
20260508134551 8 297 0.0 0.0 0.00 0.00 0.00 95 1012.7
20260508133047 8 297 0.0 0.0 0.00 0.00 0.00 95 1012.5
20260508130034 8 297 0.0 0.0 0.00 0.00 0.00 95 1012.3
20260508124514 8 297 0.0 0.0 0.00 0.00 0.00 95 1012.3
20260508123015 8 297 0.0 0.0 0.00 0.00 0.00 95 1012.2
20260508121510 8 297 0.0 0.0 0.00 0.00 0.00 95 1012.3
20260508120008 8 297 0.0 0.0 0.00 0.00 0.00 95 1012.2
20260508114506 9 297 0.0 0.0 0.00 0.00 0.00 95 1012.2
20260508113005 9 297 0.0 0.0 0.00 0.00 0.00 95 1012.2
20260508111505 9 297 0.0 0.0 0.00 0.00 0.00 95 1012.1
20260508110002 10 297 0.0 0.0 0.00 0.00 0.00 95 1012.1
20260508104600 10 297 0.0 0.0 0.00 0.00 0.00 95 1012.3
20260508103108 10 297 0.0 0.0 0.00 0.00 0.00 95 1012.3
20260508101558 10 297 0.0 0.0 0.00 0.00 0.00 94 1012.3
20260508100055 10 297 0.0 0.0 0.00 0.00 0.00 94 1012.3
20260508094552 10 297 0.0 0.0 0.00 0.00 0.00 94 1012.3
20260508093058 11 297 0.0 0.0 0.00 0.00 0.00 94 1012.3
20260508091549 11 297 0.0 0.0 0.00 0.00 0.00 94 1012.3
20260508090055 11 297 0.0 0.0 0.00 0.00 0.00 94 1012.1
20260508084545 11 297 0.0 0.0 0.00 0.00 0.00 94 1012.1
20260508083047 11 297 0.0 0.0 0.00 0.00 0.00 94 1012.2
20260508081541 11 297 0.0 0.0 0.00 0.00 0.00 94 1012.2
20260508080045 12 297 0.0 0.0 0.00 0.00 0.00 94 1012.2
20260508074536 12 297 0.0 0.0 0.00 0.00 0.00 94 1012.2
20260508073040 12 297 0.0 0.0 0.00 0.00 0.00 93 1012.1
20260508071535 12 297 0.0 0.0 0.00 0.00 0.00 93 1012.1
20260508070031 12 297 0.0 0.0 0.00 0.00 0.00 93 1012.1
20260508064538 13 297 0.0 0.0 0.00 0.00 0.00 93 1012.1
20260508063039 13 297 0.0 0.0 0.00 0.00 0.00 93 1012.2
20260508061531 13 297 0.0 0.0 0.00 0.00 0.00 92 1012.3
20260508060029 13 297 0.0 0.0 0.00 0.00 0.00 92 1012.3
20260508054528 13 297 0.0 0.0 0.00 0.00 0.00 91 1012.4
20260508053028 14 297 0.0 0.0 0.00 0.00 0.00 91 1012.4
20260508051527 14 297 0.0 0.0 0.00 0.00 0.00 90 1012.5
20260508050034 14 297 0.0 0.0 0.00 0.00 0.00 89 1012.6
20260508044526 15 297 0.0 0.0 0.00 0.00 0.00 88 1012.5
20260508043026 15 297 0.0 0.0 0.00 0.00 0.00 87 1012.4
20260508041525 15 297 0.0 0.0 0.00 0.00 0.00 85 1012.4
20260508040034 16 298 0.0 0.0 0.00 0.00 0.00 84 1012.2
20260508034524 16 297 0.0 0.0 0.00 0.00 0.00 82 1012.0
20260508033023 17 297 0.0 0.0 0.00 0.00 0.00 80 1011.9
20260508031523 18 297 0.0 0.0 0.00 0.00 0.00 78 1011.8
20260508030026 18 297 0.0 0.0 0.00 0.00 0.00 75 1011.6
20260508024522 20 297 0.0 0.0 0.00 0.00 0.00 73 1011.6
20260508023022 21 297 0.0 1.6 0.00 0.00 0.00 69 1011.5
20260508021521 23 297 0.0 1.6 0.00 0.00 0.00 60 1011.4
20260508020029 23 269 0.0 1.6 0.00 0.00 0.00 56 1011.4
20260508014521 25 257 0.0 1.6 0.00 0.00 0.00 53 1011.5
20260508013018 23 288 0.0 3.2 0.00 0.00 0.00 55 1011.5
20260508011519 23 247 0.0 3.2 0.00 0.00 0.00 56 1011.5
20260508010017 24 221 1.6 4.8 0.00 0.00 0.00 58 1011.6
20260508004515 24 256 1.6 4.8 0.00 0.00 0.00 56 1011.7
20260508003015 24 231 0.0 4.8 0.00 0.00 0.00 55 1011.7
20260508001534 24 352 1.6 9.7 0.00 0.00 0.00 56 1011.7
20260508000012 24 222 1.6 8.0 0.00 0.00 0.00 55 1011.6
20260507234514 25 221 1.6 6.4 0.00 0.00 0.00 55 1011.7
20260507233014 25 250 1.6 4.8 0.00 0.00 0.00 57 1011.7
20260507231508 25 213 0.0 6.4 0.00 0.00 0.00 53 1011.8
20260507230007 25 117 1.6 6.4 0.00 0.00 0.00 57 1012.0
20260507224504 25 150 1.6 6.4 0.00 0.00 0.00 56 1012.2
20260507223001 25 251 1.6 4.8 0.00 0.00 0.00 57 1012.4
20260507221559 25 199 1.6 4.8 0.00 0.00 0.00 55 1012.6
20260507220056 26 221 1.6 4.8 0.00 0.00 0.00 57 1012.8
20260507214559 25 174 1.6 8.0 0.00 0.00 0.00 57 1013.0
20260507213052 25 275 1.6 6.4 0.00 0.00 0.00 57 1013.2
20260507211551 25 244 1.6 8.0 0.00 0.00 0.00 58 1013.3
20260507210052 26 233 1.6 6.4 0.00 0.00 0.00 56 1013.3
20260507204552 26 231 1.6 4.8 0.00 0.00 0.00 57 1013.5
20260507203042 25 283 1.6 8.0 0.00 0.00 0.00 57 1013.5
20260507201551 25 292 3.2 6.4 0.00 0.00 0.00 56 1013.7
20260507200038 25 234 1.6 3.2 0.00 0.00 0.00 58 1013.8
20260507194535 24 219 1.6 6.4 0.00 0.00 0.00 59 1014.0
20260507193107 24 237 1.6 8.0 0.00 0.00 0.00 58 1014.1
20260507191551 25 257 1.6 6.4 0.00 0.00 0.00 58 1014.2
20260507190046 25 233 1.6 4.8 0.00 0.00 0.00 57 1014.3
20260507184538 23 162 1.6 4.8 0.00 0.00 0.00 56 1014.5
20260507183038 23 248 0.0 6.4 0.00 0.00 0.00 60 1014.6